カタログに戻る

OPS 4682 DEB

運用中PO
NORAD 38433·DEBRIS·🇺🇸 United States

打ち上げ Apr 3, 1965 から Vandenberg Space Force Base

Loading…

次のパス (今後24時間)

TLE

最新Source: Space-Track

元期: Sep 14, 2026, 07:15 UTC

1 38433U 65027EN  26257.30249937  .00000970  00000-0  26733-2 0  9999
2 38433  90.2644  15.4530 0026008 287.5902  72.2386 13.12341346643532

AllMySatでOPS 4682 DEBをリアルタイム追跡

Download on the App Store